Wind_Speed
15 15 15 16 16 17 15 13 11 10 10 10 11 11 11 11 11 13 16 18 20 22 24 27 28 29 30 31 32 34 36 36 36 36 35 34 34 35 38 41 42 40
14 14 14 14 15 16 16 14 13 12 11 11 11 12 13 13 14 16 18 20 22 24 27 30 32 33 34 34 34 35 37 36 35 36 35 33 33 34 34 36 37 36
14 14 13 14 15 16 16 16 15 15 15 14 14 14 15 16 17 19 20 22 25 28 30 32 34 36 37 38 37 36 36 36 35 36 36 36 36 36 34 34 34 33
14 14 14 14 15 16 17 17 17 17 17 17 17 17 17 18 19 20 21 22 25 28 30 31 33 34 36 37 37 38 38 37 36 35 35 36 37 38 36 35 34 32
14 15 15 15 15 16 17 17 18 18 18 18 18 18 18 19 20 20 21 21 22 24 26 28 30 31 33 34 35 37 38 38 37 35 35 36 38 38 37 36 35 33
15 15 15 15 16 16 16 17 17 17 17 17 16 17 18 18 18 18 18 19 19 21 23 25 26 28 29 31 32 35 37 38 37 36 36 37 38 39 38 37 37 37
15 15 15 16 16 17 16 16 15 15 14 14 15 15 16 15 14 14 16 18 19 20 22 24 25 26 27 28 30 33 36 37 37 37 37 37 37 38 38 37 37 38
15 15 15 16 16 16 16 15 14 14 14 14 15 15 14 13 13 14 16 18 20 21 22 24 26 27 27 27 28 31 34 35 36 37 37 37 37 37 37 37 36 37
15 16 15 16 16 16 16 15 14 15 15 15 15 14 12 12 13 16 18 20 22 23 23 24 25 26 26 26 27 30 31 32 33 35 36 37 37 36 37 38 38 38
14 15 15 16 16 15 14 13 13 15 16 16 14 13 12 13 15 17 19 22 24 24 24 25 24 24 24 25 26 28 30 30 29 31 32 34 35 35 36 38 39 40
14 14 15 15 15 14 12 12 13 14 15 15 13 13 14 15 16 18 20 23 24 24 25 26 25 24 23 23 24 25 27 28 28 29 29 30 32 34 36 38 39 40
13 13 14 14 16 16 14 13 13 14 14 13 12 13 14 15 16 18 20 23 24 24 25 26 24 23 23 22 21 22 22 24 26 27 27 28 29 32 34 36 37 38
12 12 13 14 15 17 16 16 15 15 15 13 12 12 14 15 17 18 20 22 23 24 25 26 24 23 22 21 20 20 20 21 23 25 26 27 29 31 33 35 37 38
11 12 13 14 16 17 17 17 17 16 15 14 13 12 14 16 17 18 19 20 22 23 26 26 23 20 18 18 18 18 17 18 22 26 29 30 31 33 34 36 37 39
11 13 14 15 16 17 18 18 17 16 15 14 13 12 13 15 17 18 18 19 21 22 25 26 24 21 19 19 21 22 22 21 22 25 29 32 33 33 33 34 36 39
13 15 16 16 16 18 18 18 17 15 14 14 13 12 12 15 17 18 17 18 20 21 23 26 27 26 24 23 23 24 24 25 24 24 27 30 33 34 34 34 36 40
14 15 17 17 18 18 17 16 15 14 14 14 13 13 14 15 17 18 18 17 19 20 22 26 28 28 27 25 24 24 23 25 26 26 26 28 30 33 36 37 38 39
15 16 17 16 16 15 15 14 13 13 13 15 15 14 15 16 17 17 17 17 19 20 22 25 26 27 27 26 26 26 25 24 26 27 27 28 29 30 34 36 36 36
14 15 14 13 13 14 13 13 13 12 13 14 16 16 16 17 16 15 15 16 18 20 23 24 25 26 27 27 27 29 28 25 25 26 27 28 29 29 30 30 31 33
13 12 12 13 13 14 14 14 13 13 13 13 15 16 16 16 16 14 14 14 18 22 24 25 25 26 26 27 28 31 33 29 24 22 23 24 25 26 26 27 28 31
12 12 13 14 14 15 16 14 14 14 12 12 13 14 15 17 16 14 13 15 19 23 25 25 26 26 26 27 28 31 34 33 26 21 20 20 20 21 23 23 23 25
12 13 14 14 15 15 16 15 14 13 11 10 12 14 15 17 16 14 14 16 20 24 24 25 26 25 25 27 28 31 34 32 24 16 13 13 15 16 17 17 16 18
13 15 16 15 15 15 15 15 14 12 10 10 12 13 14 16 16 15 14 15 19 22 22 23 24 24 24 26 28 29 32 32 25 14 7 8 13 14 13 12 10 11
14 16 16 15 15 15 14 14 12 10 10 10 12 12 13 14 17 18 17 16 17 20 19 20 22 23 23 26 27 28 30 33 31 22 13 8 7 8 8 8 5 5
13 14 15 15 15 14 13 12 10 10 10 11 12 12 11 14 17 19 18 16 16 17 16 17 21 23 23 24 26 27 28 29 31 30 25 21 19 14 9 6 5 5
12 13 14 13 13 12 11 10 10 11 11 12 12 11 12 15 17 18 18 16 15 15 14 15 20 22 22 23 24 25 26 26 27 31 32 29 27 24 20 18 16 14
Wind_Direction
316 314 312 313 313 315 320 325 324 318 311 301 292 287 284 280 268 258 254 251 250 250 252 255 257 259 259 258 258 259 263 266 266 264 263 265 269 271 268 262 259 262
316 318 318 318 316 315 318 319 315 309 305 299 294 288 282 278 276 273 270 265 262 260 258 257 258 260 261 260 260 261 262 263 263 263 263 265 268 272 270 262 258 259
321 323 325 323 321 318 317 315 310 305 301 297 296 295 291 287 283 281 278 274 271 270 268 266 265 265 266 265 264 263 261 260 260 260 263 265 267 268 266 261 257 258
328 330 328 324 320 317 314 312 307 302 299 297 295 294 291 289 287 284 282 278 275 274 273 273 272 270 270 269 267 264 260 259 259 260 263 265 266 265 264 262 260 258
330 328 326 323 320 317 316 314 309 304 300 296 294 292 291 292 292 291 290 288 285 281 279 277 276 273 271 269 266 263 261 259 258 260 262 263 264 264 263 262 259 256
327 326 326 324 322 321 322 320 317 313 308 304 301 299 300 299 299 300 300 300 299 294 288 284 281 278 273 270 265 261 259 258 257 258 260 261 262 262 261 260 258 256
323 325 328 328 324 322 323 323 323 323 322 319 317 316 314 310 309 311 313 312 310 305 298 292 289 285 279 275 269 263 259 256 255 256 257 258 260 260 259 258 258 257
322 326 329 329 324 321 322 322 322 324 326 323 322 323 321 319 322 325 325 322 319 315 309 300 294 290 285 280 274 268 263 259 255 254 255 257 258 258 257 257 259 259
323 328 327 323 320 318 319 321 321 323 323 319 321 324 324 327 332 331 330 330 327 323 318 310 302 294 289 286 280 272 266 262 257 255 256 257 257 257 256 256 259 259
325 326 326 325 326 322 319 322 324 324 323 322 325 331 334 334 333 332 333 333 331 329 326 320 311 300 293 292 289 278 265 260 259 257 256 256 256 255 255 256 258 259
325 327 332 340 345 342 333 328 327 329 331 331 334 339 341 337 334 334 334 332 331 333 330 326 319 308 300 297 297 287 269 259 258 257 256 256 254 255 255 256 258 259
326 331 340 350 355 353 347 338 332 331 331 331 334 338 339 337 335 336 333 331 333 335 332 328 322 314 307 303 302 296 279 265 260 258 258 257 255 254 255 256 257 257
326 334 341 347 350 350 347 343 338 334 328 324 326 332 338 340 339 335 331 331 334 336 334 330 324 317 314 311 307 301 286 272 265 263 263 262 261 259 258 258 258 257
324 331 336 339 341 342 343 343 341 338 334 326 319 320 332 342 343 337 331 332 338 339 337 334 329 324 319 313 309 308 297 278 266 263 263 263 263 262 260 260 259 258
324 328 331 331 331 332 335 338 339 339 338 334 326 323 332 343 346 340 333 334 339 341 341 341 339 335 326 316 312 313 308 295 279 268 266 266 264 261 258 258 259 258
322 325 327 327 327 326 328 332 335 336 338 339 338 339 342 344 344 340 336 335 338 339 342 343 342 339 334 326 319 312 306 301 295 284 276 272 266 260 257 260 262 260
321 323 325 325 325 325 325 327 329 331 335 336 338 344 347 343 341 340 341 340 338 338 341 342 341 340 339 334 328 320 310 303 299 291 282 276 269 261 260 264 265 263
320 320 322 323 324 325 325 325 324 327 333 333 333 339 344 341 339 342 347 349 344 340 340 339 337 339 342 340 336 330 319 306 299 294 285 276 270 266 266 267 266 264
319 318 320 322 324 327 325 322 320 322 330 334 332 333 336 337 337 340 347 351 349 345 342 339 338 341 346 345 341 338 331 316 302 295 288 279 273 272 272 270 267 266
319 317 319 319 320 321 320 320 321 320 323 332 334 332 333 336 335 335 339 344 344 343 344 343 340 343 348 348 347 345 341 331 314 297 286 280 276 274 275 273 270 266
315 316 319 317 314 315 317 320 322 322 323 328 333 333 334 336 336 332 329 331 334 337 342 344 342 344 349 351 351 350 347 341 328 306 289 280 276 278 281 279 274 266
309 311 316 317 314 313 316 319 322 326 328 328 332 335 335 338 341 337 327 325 329 334 339 343 344 347 352 355 356 354 353 352 342 320 300 286 279 284 289 289 285 274
307 310 313 318 319 316 316 317 320 328 331 331 335 337 338 342 346 344 338 332 331 333 338 345 348 350 355 1 2 359 1 5 2 358 345 308 297 295 293 290 297 295
311 315 316 318 319 319 318 316 318 325 326 330 337 338 339 343 346 345 344 341 338 336 340 348 352 353 357 4 4 3 9 12 11 18 38 34 353 326 294 271 274 306
314 318 319 317 315 318 318 313 315 321 319 323 332 335 336 340 342 342 341 341 343 344 347 355 359 359 1 3 5 6 11 12 11 17 31 48 57 58 54 57 57 36
314 321 323 322 319 318 317 313 317 322 321 323 328 328 330 336 340 342 343 341 342 347 355 3 6 7 5 2 5 9 10 9 12 17 22 29 42 55 61 62 58 52
Height
1521 1520 1519 1517 1516 1514 1512 1511 1510 1509 1508 1508 1508 1508 1507 1507 1507 1507 1507 1507 1508 1507 1507 1508 1508 1508 1508 1507 1508 1508 1507 1507 1507 1507 1506 1506 1507 1507 1507 1507 1509 1509
1520 1519 1518 1516 1514 1513 1512 1510 1509 1508 1507 1506 1506 1506 1505 1505 1505 1505 1505 1504 1504 1504 1504 1504 1504 1503 1503 1503 1503 1503 1503 1503 1503 1503 1502 1501 1502 1502 1502 1503 1504 1505
1519 1517 1516 1515 1513 1512 1510 1509 1508 1507 1506 1505 1505 1504 1504 1504 1503 1503 1503 1502 1502 1501 1501 1501 1500 1499 1499 1498 1498 1498 1498 1497 1498 1498 1498 1497 1498 1498 1498 1499 1500 1500
1517 1516 1515 1514 1512 1510 1509 1508 1507 1506 1504 1504 1503 1502 1502 1501 1501 1500 1499 1499 1498 1498 1497 1496 1496 1495 1494 1493 1492 1492 1492 1492 1492 1493 1493 1492 1493 1494 1494 1495 1496 1496
1516 1515 1513 1512 1511 1509 1508 1506 1505 1504 1503 1502 1501 1500 1499 1498 1498 1497 1496 1495 1495 1494 1493 1492 1491 1489 1488 1488 1487 1486 1486 1486 1486 1487 1487 1487 1487 1488 1489 1490 1491 1492
1516 1514 1512 1511 1509 1508 1506 1505 1503 1502 1501 1500 1499 1498 1497 1496 1495 1494 1493 1492 1491 1490 1489 1487 1486 1484 1483 1483 1482 1481 1480 1480 1481 1481 1481 1481 1482 1483 1484 1485 1486 1487
1514 1513 1511 1510 1508 1506 1505 1503 1502 1501 1499 1499 1497 1496 1495 1493 1492 1491 1490 1489 1488 1486 1485 1483 1482 1480 1479 1478 1477 1475 1475 1475 1475 1476 1475 1476 1477 1478 1479 1480 1481 1481
1513 1512 1510 1509 1507 1505 1503 1502 1501 1500 1498 1497 1496 1495 1493 1491 1490 1489 1488 1487 1485 1483 1481 1479 1477 1476 1475 1474 1472 1471 1470 1469 1470 1470 1470 1470 1472 1473 1474 1474 1475 1476
1512 1510 1509 1507 1505 1504 1502 1501 1499 1498 1497 1496 1494 1493 1492 1490 1488 1487 1485 1484 1482 1479 1477 1475 1473 1472 1471 1469 1468 1466 1465 1464 1464 1464 1464 1465 1466 1467 1469 1469 1470 1470
1510 1509 1508 1506 1504 1502 1501 1499 1498 1497 1495 1494 1493 1492 1490 1489 1487 1485 1483 1481 1479 1476 1473 1471 1469 1467 1466 1465 1463 1462 1460 1459 1459 1459 1459 1460 1460 1462 1463 1464 1464 1465
1509 1508 1507 1505 1503 1501 1500 1499 1497 1496 1494 1493 1492 1490 1489 1487 1485 1483 1480 1478 1476 1473 1470 1467 1465 1463 1462 1461 1459 1457 1455 1454 1454 1454 1455 1455 1456 1457 1458 1458 1459 1459
1508 1507 1505 1504 1502 1501 1499 1498 1496 1494 1493 1491 1490 1489 1487 1485 1483 1481 1479 1476 1474 1471 1468 1464 1462 1460 1459 1458 1456 1453 1451 1451 1450 1450 1451 1451 1451 1452 1452 1453 1453 1454
1507 1506 1504 1503 1501 1500 1498 1497 1495 1493 1491 1490 1489 1487 1486 1484 1481 1479 1477 1475 1472 1469 1466 1462 1459 1458 1456 1455 1452 1450 1448 1447 1447 1447 1447 1447 1447 1447 1447 1448 1448 1448
1506 1505 1503 1502 1500 1499 1497 1496 1494 1492 1490 1488 1487 1486 1484 1482 1480 1477 1475 1473 1470 1467 1464 1461 1458 1456 1454 1451 1449 1447 1445 1444 1444 1443 1442 1442 1442 1442 1442 1443 1443 1443
1504 1503 1502 1501 1499 1497 1496 1494 1493 1491 1489 1487 1486 1484 1483 1481 1478 1476 1473 1471 1469 1466 1463 1460 1457 1455 1452 1449 1447 1445 1443 1442 1441 1439 1438 1437 1437 1437 1437 1438 1437 1437
1503 1502 1500 1499 1498 1496 1495 1493 1491 1489 1488 1486 1485 1483 1481 1479 1477 1475 1472 1469 1467 1465 1462 1459 1456 1454 1451 1448 1446 1443 1441 1439 1437 1436 1434 1433 1432 1431 1432 1432 1432 1431
1501 1500 1499 1498 1496 1495 1493 1491 1490 1488 1486 1485 1484 1482 1480 1478 1476 1473 1471 1468 1466 1464 1461 1458 1455 1452 1449 1446 1444 1441 1438 1435 1433 1431 1430 1428 1427 1426 1426 1426 1426 1425
1500 1499 1497 1496 1495 1493 1492 1490 1488 1486 1485 1484 1482 1480 1478 1476 1475 1472 1470 1467 1465 1463 1461 1457 1454 1451 1448 1444 1441 1437 1434 1431 1428 1426 1425 1424 1423 1422 1421 1420 1420 1419
1499 1498 1496 1495 1494 1492 1491 1489 1487 1485 1484 1482 1481 1479 1477 1475 1474 1472 1469 1467 1464 1462 1460 1457 1454 1451 1446 1443 1439 1435 1431 1427 1424 1421 1419 1419 1418 1417 1416 1415 1414 1413
1498 1497 1495 1494 1493 1491 1490 1488 1486 1484 1482 1481 1479 1478 1476 1474 1472 1470 1469 1466 1464 1461 1459 1456 1453 1450 1445 1442 1438 1434 1429 1424 1419 1417 1415 1414 1414 1413 1412 1410 1409 1407
1497 1496 1494 1493 1492 1490 1489 1487 1485 1483 1481 1480 1478 1476 1474 1473 1471 1469 1468 1466 1463 1461 1458 1455 1452 1449 1445 1441 1437 1433 1427 1421 1416 1413 1411 1411 1410 1409 1408 1405 1403 1401
1496 1495 1493 1492 1490 1489 1487 1486 1484 1482 1480 1478 1476 1475 1473 1471 1469 1468 1466 1464 1462 1460 1457 1454 1451 1448 1444 1440 1436 1432 1427 1420 1415 1411 1409 1408 1407 1406 1404 1402 1399 1396
1495 1493 1492 1490 1489 1488 1486 1485 1483 1481 1479 1477 1475 1473 1472 1470 1468 1467 1465 1463 1461 1459 1456 1453 1450 1447 1444 1439 1435 1432 1427 1421 1416 1412 1408 1407 1406 1404 1402 1400 1397 1394
1494 1492 1490 1489 1488 1487 1485 1484 1482 1480 1478 1476 1474 1472 1470 1469 1467 1466 1464 1462 1460 1458 1455 1453 1450 1447 1443 1439 1436 1433 1428 1423 1420 1415 1410 1407 1405 1403 1401 1399 1396 1395
1492 1491 1489 1488 1486 1485 1484 1483 1481 1479 1477 1475 1473 1471 1470 1468 1467 1465 1463 1461 1459 1457 1455 1453 1450 1447 1444 1440 1437 1434 1430 1426 1423 1419 1414 1409 1406 1404 1402 1400 1398 1397
1491 1490 1488 1486 1485 1484 1483 1482 1480 1478 1476 1475 1473 1471 1469 1468 1466 1464 1462 1461 1459 1457 1454 1452 1450 1447 1444 1441 1438 1435 1432 1429 1425 1421 1417 1414 1410 1407 1405 1403 1402 1402